RH
74 66 54 62 58 60 91 84 89 100 80 71 99 100 100 100 100 99 98 87 90 99 99 100 100 100 100 96 97 60 60 43 51 54 44 83 100 100
95 99 94 100 100 82 89 100 100 90 97 100 99 96 100 100 100 100 100 100 100 100 100 100 100 100 100 90 81 69 59 85 100 80 68 82 100 100
100 100 100 100 96 100 100 100 97 100 100 100 100 100 100 100 100 100 100 100 100 100 100 100 100 98 91 80 66 69 68 49 45 52 87 100 100 100
100 100 100 100 100 100 100 100 100 100 100 100 96 100 100 100 100 100 100 100 100 100 100 83 84 77 58 60 85 58 48 46 56 80 100 100 100 100
100 100 100 99 100 100 100 100 100 100 100 100 100 98 100 97 76 95 92 98 100 100 87 80 70 59 52 45 48 53 71 86 100 82 100 100 95 76
100 100 100 100 100 100 100 100 100 100 100 100 100 97 100 100 100 98 79 81 95 83 61 58 62 57 47 43 75 77 100 100 100 100 100 100 100 82
100 100 100 100 88 100 100 100 100 100 100 100 100 100 92 89 70 74 56 55 64 58 63 57 51 63 72 95 94 100 100 99 91 93 94 91 88 86
100 100 100 100 100 100 100 100 100 100 100 100 100 89 88 85 67 69 53 54 66 63 63 59 99 94 100 100 100 100 100 98 100 83 96 90 100 90
100 100 100 100 100 100 100 100 100 100 98 96 94 98 80 68 70 84 74 65 100 100 100 100 100 100 100 100 100 100 100 100 100 100 100 87 85 62
100 100 100 100 100 100 100 100 100 100 100 100 100 100 100 93 99 100 100 100 100 100 100 100 100 100 100 100 100 98 100 100 93 100 100 78 76 44
84 89 100 100 100 100 100 100 100 100 100 100 99 100 100 100 100 100 100 100 100 100 100 100 100 100 98 100 100 100 100 100 100 95 80 78 49 34
92 100 88 94 99 100 100 100 100 100 100 100 100 100 100 100 100 100 100 100 100 100 100 100 100 82 100 100 100 100 100 93 100 84 63 57 42 42
40 66 87 94 100 95 99 100 100 100 100 100 100 100 100 100 100 100 100 100 100 100 100 100 100 95 89 93 94 100 96 90 82 59 47 59 53 50
18 18 21 29 55 96 97 95 92 91 88 92 100 100 100 100 100 100 100 100 100 100 99 91 77 76 79 81 98 99 95 81 67 58 58 66 66 64
20 21 19 18 20 25 34 37 43 39 41 55 60 71 79 81 84 91 93 88 78 66 61 66 70 67 65 76 84 95 100 82 75 70 74 75 75 88
5 6 10 18 19 19 19 23 24 25 26 32 48 58 58 69 70 69 77 71 59 59 67 51 53 51 50 62 70 91 86 88 75 89 80 86 89 94
4 3 4 4 6 10 19 24 26 27 30 33 36 44 51 52 56 61 57 56 61 60 61 72 66 74 74 60 92 95 91 91 87 93 85 96 94 97
4 5 5 5 4 4 5 6 9 13 20 28 38 46 47 49 51 52 53 59 60 73 80 86 89 90 72 81 100 97 99 96 100 95 90 97 99 99
3 4 4 5 6 6 5 4 5 6 8 14 21 27 32 38 49 55 56 64 70 88 91 86 92 84 75 98 97 100 100 100 100 100 94 94 100 100
3 3 3 4 4 6 7 7 6 5 5 7 9 11 14 21 33 40 44 56 61 58 73 75 98 90 73 98 93 100 100 100 100 100 98 99 100 99
3 3 3 3 3 4 5 7 8 8 8 7 7 8 10 12 14 20 25 38 46 50 51 85 93 82 72 100 100 100 100 97 100 95 100 100 100 97
3 3 3 3 3 4 4 5 7 8 9 10 9 9 8 9 12 14 17 24 41 38 58 62 85 81 98 100 100 100 100 100 98 100 100 100 100 98
3 3 4 4 4 4 4 4 6 8 9 10 11 11 11 10 11 14 16 22 28 40 47 64 78 94 100 100 100 100 100 100 99 100 98 100 100 98
Wind_Speed
97 97 99 98 89 81 81 81 83 80 84 80 80 82 83 87 81 81 82 84 83 80 80 78 82 87 90 93 87 97 90 94 86 80 84 81 78 86
97 94 96 83 89 91 90 90 91 88 90 84 81 83 85 87 89 88 86 83 87 91 90 90 90 93 96 100 100 98 94 92 95 86 84 84 81 83
98 96 94 93 94 87 94 93 95 96 92 86 87 88 90 91 88 89 91 92 93 93 93 96 100 103 104 105 109 96 87 86 84 81 86 88 92 95
99 105 97 102 104 102 96 98 91 97 96 99 97 93 93 95 94 93 96 99 99 101 103 107 107 108 111 108 92 94 86 85 88 89 93 96 92 97
115 116 116 113 105 107 109 107 102 104 104 103 103 101 97 100 104 101 101 102 105 105 107 109 112 110 108 103 85 94 89 91 95 96 99 97 97 106
123 122 124 115 111 110 110 107 110 105 107 110 104 108 106 106 112 110 112 108 111 114 114 114 116 113 105 94 89 94 92 97 102 100 105 103 106 114
114 115 110 117 122 120 119 118 119 123 125 123 116 114 116 118 119 116 120 119 120 120 121 123 115 102 99 95 98 96 100 106 107 111 111 109 110 117
119 118 119 120 122 125 125 121 122 117 117 117 121 124 126 126 129 118 117 121 119 118 109 111 104 102 99 100 101 104 106 110 114 113 114 119 124 127
125 126 126 123 125 130 133 129 124 125 127 128 127 122 126 126 123 129 113 118 105 104 107 100 101 103 104 106 107 110 111 117 119 122 122 122 129 130
128 131 132 130 132 133 131 126 128 127 125 127 122 120 118 122 113 111 114 108 106 109 108 106 106 109 108 112 112 117 119 120 124 125 124 125 110 95
152 144 140 137 134 135 134 130 125 121 128 126 127 127 127 115 118 114 118 114 117 112 109 112 116 115 119 117 116 119 123 127 121 118 110 100 79 68
159 151 157 151 146 144 138 135 134 130 129 126 125 124 124 122 123 121 122 123 121 116 116 115 115 120 121 119 126 130 123 123 113 98 85 69 64 59
146 152 158 157 156 159 154 151 146 148 148 145 140 137 135 130 132 135 130 127 125 128 125 125 126 136 129 125 122 114 103 94 81 67 61 61 58 51
132 134 143 151 153 152 163 167 165 162 161 154 150 147 147 149 144 135 132 131 136 137 141 138 121 103 94 94 99 90 82 77 69 62 60 57 51 43
134 132 134 131 132 134 143 146 147 143 143 146 148 150 149 147 146 145 147 141 135 120 105 102 98 92 91 85 82 79 77 65 59 55 52 50 44 38
114 119 123 129 131 134 134 134 133 131 131 131 132 132 129 129 123 119 115 115 107 105 103 96 94 96 87 82 79 75 64 55 53 50 46 42 40 35
92 96 100 104 110 116 123 131 132 131 129 129 130 129 125 121 119 118 119 113 108 106 106 106 103 96 90 83 74 62 52 50 50 47 41 37 36 34
81 84 87 90 92 97 100 106 111 114 117 119 122 124 123 124 124 122 117 111 112 111 109 105 97 94 82 71 64 52 49 48 46 42 38 33 35 35
72 75 77 80 82 84 85 85 88 92 98 104 107 109 112 111 111 110 110 108 107 101 98 92 89 81 71 63 53 45 45 47 43 40 36 34 34 36
64 67 68 71 73 75 76 77 77 76 78 84 90 95 97 97 98 99 100 98 96 90 85 78 78 75 67 55 42 43 46 46 43 39 36 35 36 36
57 60 61 63 66 68 69 70 70 70 68 67 72 74 79 79 81 86 83 83 82 80 73 71 70 65 55 42 45 47 46 45 42 39 37 36 38 38
51 54 57 58 60 61 61 62 63 64 64 63 63 63 63 64 69 73 72 71 75 69 68 61 58 54 45 43 45 45 46 47 42 40 37 38 40 40
45 48 51 54 54 54 54 54 56 58 58 59 58 58 57 55 58 61 63 64 64 62 61 54 51 45 42 44 44 45 48 48 43 41 38 39 41 41
Wind_Direction
261 263 262 261 269 273 269 273 270 274 275 276 278 278 280 280 284 286 286 286 287 289 290 291 294 298 302 305 307 310 315 314 312 312 317 316 317 317
267 266 264 267 270 272 266 274 274 275 274 272 272 276 282 281 284 286 288 288 289 290 293 295 297 300 303 302 309 310 312 315 310 309 305 315 314 312
265 270 269 265 264 266 267 277 273 273 272 271 272 275 275 276 282 284 284 286 290 289 289 293 296 297 300 301 305 309 308 309 305 304 309 312 311 309
261 264 263 264 265 265 267 271 266 267 271 273 273 270 271 276 281 281 283 284 287 288 291 294 293 298 300 304 303 303 303 309 308 311 309 305 308 308
259 260 260 266 267 265 265 265 263 264 269 272 273 273 270 272 277 278 281 285 285 287 289 293 294 298 299 299 301 298 299 304 307 310 303 304 306 310
260 262 262 266 265 264 261 262 265 266 267 270 272 273 272 272 275 275 278 280 282 285 287 289 290 294 301 300 299 303 301 301 300 301 302 301 300 304
259 262 262 262 262 262 262 264 264 265 267 269 273 274 273 277 279 281 279 278 283 284 286 288 290 296 301 300 300 297 296 301 304 300 302 305 303 307
259 260 262 264 261 264 265 266 266 268 271 275 278 278 279 279 284 286 284 283 286 286 290 290 294 295 295 295 293 292 294 295 300 302 304 303 305 306
262 262 261 262 264 262 263 266 268 268 268 270 276 278 277 278 282 277 284 288 285 285 289 286 289 289 289 291 290 293 290 297 297 301 302 304 306 305
258 261 262 263 264 265 264 265 267 268 268 272 273 273 274 278 278 274 280 278 279 282 282 283 282 285 283 289 289 292 292 296 300 302 303 306 305 304
256 257 258 258 261 260 261 262 264 262 266 265 267 267 271 272 271 273 270 275 276 277 281 276 280 283 287 287 290 292 293 296 302 300 302 301 299 297
257 258 258 259 259 257 257 259 261 261 260 263 264 262 264 268 269 269 272 271 274 273 280 279 279 284 287 286 292 293 294 297 297 296 298 294 294 293
257 256 258 259 259 259 260 264 265 265 264 265 265 266 266 268 268 271 272 272 275 277 281 280 281 289 287 287 289 291 293 294 295 295 295 292 290 286
259 260 259 258 258 259 258 260 263 265 265 267 269 268 267 270 271 272 274 275 277 279 279 284 285 286 288 290 290 291 290 291 290 289 289 286 283 283
259 257 257 259 260 259 259 260 262 265 266 267 268 269 271 272 273 274 275 276 278 281 281 283 286 288 290 290 291 291 292 287 287 283 280 278 278 279
259 260 259 257 257 257 256 259 261 263 265 266 267 268 270 273 274 275 276 277 280 283 283 286 284 286 288 288 291 291 288 282 280 277 271 273 273 274
260 259 258 258 258 258 258 257 259 259 260 262 264 267 268 270 272 273 275 277 278 280 282 281 282 286 285 289 291 288 279 274 272 268 266 268 273 268
260 259 258 258 257 257 256 257 258 259 260 261 262 264 267 268 269 270 272 273 275 277 279 280 280 282 282 284 285 280 271 265 264 262 264 267 266 260
259 257 256 256 255 255 255 255 255 255 257 258 260 262 263 264 266 267 268 270 271 272 272 276 276 278 280 283 281 271 260 257 259 261 264 263 258 257
258 257 255 254 254 253 253 253 253 252 252 253 255 257 258 259 260 261 262 264 265 266 268 271 271 275 275 279 272 259 251 252 251 260 262 262 255 252
257 256 254 252 251 250 250 250 251 252 252 250 249 251 252 254 255 257 258 259 261 264 265 264 265 268 271 265 256 250 248 245 250 258 261 258 254 252
254 252 252 250 249 247 246 246 246 246 247 248 248 247 246 245 246 249 251 252 255 256 258 259 259 262 263 249 245 242 239 242 249 256 258 255 252 251
254 249 249 248 247 246 244 242 242 241 241 241 243 244 243 242 240 241 242 245 247 250 251 251 250 253 245 239 236 232 235 240 247 254 256 253 251 251